When you browse on this site, cookies collect data to enhance your experience and personalize the content and advertising you see.
Visit our Privacy Policy to learn more. By continuing to use the site, you agree to this use of cookies and data.
  • In Lithuania
  • List of Countries
  • For 7 days
  • Water Temperature
  • Weather Map
  • Weather Widgets
  • user-avatar
    Login

    Hourly Weather Río Gallegos

    Today, 31 March, Tuesday

    Time Temperature Precipitation Wind Pressure Humidity
    00:00 +8°C° 0 mm 5 mps 761 mmHg 69%
    01:00 +8°C° 0 mm 5 mps 761 mmHg 68%
    02:00 +8°C° 0 mm 5 mps 761 mmHg 71%
    03:00 +7°C° 0 mm 5 mps 761 mmHg 73%
    04:00 +7°C° 0 mm 4 mps 761 mmHg 76%
    05:00 +7°C° 0 mm 4 mps 761 mmHg 76%
    06:00 +7°C° 0 mm 4 mps 761 mmHg 75%
    07:00 +7°C° 0 mm 4 mps 761 mmHg 75%
    08:00 +10°C° 0 mm 4 mps 761 mmHg 69%
    09:00 +10°C° 0 mm 5 mps 761 mmHg 63%
    10:00 +13°C° 0 mm 5 mps 761 mmHg 57%
    11:00 +13°C° 0 mm 5 mps 761 mmHg 55%
    12:00 +14°C° 0 mm 5 mps 760 mmHg 53%
    13:00 +14°C° 0 mm 5 mps 760 mmHg 51%
    14:00 +14°C° 0 mm 5 mps 760 mmHg 50%
    15:00 +14°C° 0 mm 4 mps 760 mmHg 50%
    16:00 +14°C° 0 mm 4 mps 760 mmHg 49%
    17:00 +13°C° 0 mm 4 mps 760 mmHg 54%
    18:00 +12°C° 0 mm 4 mps 760 mmHg 59%
    19:00 +11°C° 0 mm 4 mps 760 mmHg 64%
    20:00 +10°C° 0 mm 5 mps 760 mmHg 66%
    21:00 +10°C° 0 mm 5 mps 760 mmHg 68%
    22:00 +10°C° 0 mm 6 mps 761 mmHg 69%
    23:00 +9°C° 0 mm 6 mps 760 mmHg 70%

    Tomorrow, 1 April, Wednesday

    Time Temperature Precipitation Wind Pressure Humidity
    00:00 +9°C° 0 mm 5 mps 760 mmHg 70%
    01:00 +9°C° 0 mm 5 mps 760 mmHg 70%
    02:00 +9°C° 0 mm 5 mps 760 mmHg 70%
    03:00 +10°C° 0 mm 4 mps 761 mmHg 71%
    04:00 +8°C° 0 mm 4 mps 761 mmHg 72%
    05:00 +8°C° 0 mm 4 mps 761 mmHg 71%
    06:00 +8°C° 0 mm 4 mps 761 mmHg 70%
    07:00 +8°C° 0 mm 4 mps 761 mmHg 70%
    08:00 +11°C° 0 mm 4 mps 761 mmHg 63%
    09:00 +12°C° 0 mm 4 mps 761 mmHg 56%
    10:00 +14°C° 0 mm 4 mps 761 mmHg 49%
    11:00 +15°C° 0 mm 4 mps 761 mmHg 46%
    12:00 +15°C° 0 mm 5 mps 761 mmHg 42%
    13:00 +16°C° 0 mm 5 mps 760 mmHg 39%
    14:00 +16°C° 0 mm 5 mps 760 mmHg 42%
    15:00 +16°C° 0 mm 5 mps 760 mmHg 45%
    16:00 +17°C° 0 mm 4 mps 760 mmHg 48%
    17:00 +15°C° 0 mm 4 mps 760 mmHg 51%
    18:00 +14°C° 0 mm 3 mps 760 mmHg 54%
    19:00 +14°C° 0 mm 3 mps 760 mmHg 56%
    20:00 +14°C° 0 mm 2 mps 761 mmHg 56%
    21:00 +14°C° 0 mm 2 mps 761 mmHg 55%
    22:00 +14°C° 0 mm 2 mps 761 mmHg 54%
    23:00 +12°C° 0 mm 3 mps 761 mmHg 56%

    Day after tomorrow, 2 April, Thursday

    Time Temperature Precipitation Wind Pressure Humidity
    00:00 +12°C° 0 mm 3 mps 761 mmHg 59%
    01:00 +12°C° 0 mm 4 mps 761 mmHg 62%
    02:00 +12°C° 0 mm 4 mps 761 mmHg 62%
    03:00 +12°C° 0 mm 4 mps 761 mmHg 62%
    04:00 +12°C° 0 mm 5 mps 761 mmHg 62%
    05:00 +12°C° 0 mm 5 mps 760 mmHg 62%
    06:00 +12°C° 0 mm 5 mps 760 mmHg 63%
    07:00 +12°C° 0 mm 5 mps 759 mmHg 64%
    08:00 +13°C° 0 mm 5 mps 759 mmHg 59%
    09:00 +15°C° 0 mm 6 mps 758 mmHg 54%
    10:00 +16°C° 0 mm 7 mps 757 mmHg 49%
    11:00 +16°C° 0 mm 7 mps 757 mmHg 49%
    12:00 +17°C° 0 mm 7 mps 756 mmHg 48%
    13:00 +17°C° 0 mm 7 mps 755 mmHg 47%
    14:00 +17°C° 0 mm 7 mps 754 mmHg 48%
    15:00 +17°C° 0 mm 6 mps 753 mmHg 48%
    16:00 +17°C° 0 mm 6 mps 752 mmHg 48%
    17:00 +16°C° 0 mm 7 mps 752 mmHg 49%
    18:00 +16°C° 0 mm 8 mps 751 mmHg 49%
    19:00 +16°C° 0 mm 9 mps 751 mmHg 49%
    20:00 +13°C° 0 mm 10 mps 751 mmHg 53%
    21:00 +12°C° 0 mm 10 mps 752 mmHg 56%
    22:00 +11°C° 0 mm 10 mps 752 mmHg 60%
    23:00 +10°C° 0 mm 9 mps 753 mmHg 60%

    3 April, Friday

    Time Temperature Precipitation Wind Pressure Humidity
    00:00 +10°C° 0 mm 9 mps 753 mmHg 60%
    01:00 +9°C° 0 mm 8 mps 753 mmHg 60%
    02:00 +8°C° 0 mm 7 mps 753 mmHg 60%
    03:00 +8°C° 0 mm 6 mps 753 mmHg 61%
    04:00 +7°C° 0 mm 6 mps 753 mmHg 61%
    05:00 +7°C° 0 mm 5 mps 753 mmHg 61%
    06:00 +7°C° 0 mm 5 mps 753 mmHg 61%
    07:00 +7°C° 0 mm 5 mps 752 mmHg 61%
    08:00 +7°C° 0.1 mm 4 mps 752 mmHg 63%
    09:00 +7°C° 0.1 mm 4 mps 752 mmHg 66%
    10:00 +7°C° 0.1 mm 4 mps 751 mmHg 68%
    11:00 +8°C° 0.1 mm 5 mps 751 mmHg 68%
    12:00 +8°C° 0.1 mm 7 mps 750 mmHg 68%
    13:00 +7°C° 0.1 mm 8 mps 749 mmHg 69%
    14:00 +7°C° 0.1 mm 8 mps 749 mmHg 69%
    15:00 +7°C° 0.1 mm 8 mps 748 mmHg 70%
    16:00 +7°C° 0.1 mm 8 mps 747 mmHg 71%
    17:00 +7°C° 0.1 mm 8 mps 747 mmHg 71%
    18:00 +6°C° 0.1 mm 8 mps 747 mmHg 72%
    19:00 +6°C° 0.1 mm 7 mps 747 mmHg 72%
    20:00 +5°C° 0.1 mm 8 mps 748 mmHg 71%
    21:00 +4°C° 0.1 mm 8 mps 748 mmHg 70%
    22:00 +3°C° 0.1 mm 9 mps 748 mmHg 68%
    23:00 +2°C° 0 mm 8 mps 748 mmHg 69%

    4 April, Saturday

    Time Temperature Precipitation Wind Pressure Humidity
    00:00 +2°C° 0 mm 8 mps 748 mmHg 71%
    01:00 +2°C° 0 mm 8 mps 748 mmHg 72%
    02:00 +2°C° 0 mm 8 mps 747 mmHg 71%
    03:00 +2°C° 0 mm 8 mps 747 mmHg 70%
    04:00 +2°C° 0 mm 8 mps 747 mmHg 68%
    05:00 +2°C° 0 mm 9 mps 746 mmHg 67%
    06:00 +3°C° 0 mm 9 mps 746 mmHg 65%
    07:00 +3°C° 0 mm 10 mps 745 mmHg 63%
    08:00 +4°C° 0 mm 11 mps 745 mmHg 63%
    09:00 +5°C° 0 mm 13 mps 745 mmHg 63%
    10:00 +6°C° 0 mm 15 mps 745 mmHg 63%
    11:00 +6°C° 0 mm 14 mps 745 mmHg 61%
    12:00 +8°C° 0 mm 13 mps 744 mmHg 60%
    13:00 +8°C° 0 mm 12 mps 744 mmHg 59%
    14:00 +8°C° 0 mm 12 mps 744 mmHg 58%
    15:00 +8°C° 0 mm 11 mps 743 mmHg 57%
    16:00 +8°C° 0 mm 11 mps 743 mmHg 56%
    17:00 +7°C° 0 mm 10 mps 743 mmHg 59%
    18:00 +7°C° 0 mm 9 mps 742 mmHg 62%
    19:00 +6°C° 0 mm 8 mps 742 mmHg 64%
    20:00 +6°C° 0 mm 8 mps 741 mmHg 65%
    21:00 +6°C° 0 mm 9 mps 741 mmHg 65%
    22:00 +6°C° 0 mm 10 mps 741 mmHg 65%
    23:00 +5°C° 0 mm 10 mps 740 mmHg 68%

    5 April, Sunday

    Time Temperature Precipitation Wind Pressure Humidity
    00:00 +5°C° 0 mm 10 mps 740 mmHg 71%
    01:00 +5°C° 0 mm 9 mps 740 mmHg 74%
    02:00 +3°C° 0 mm 10 mps 740 mmHg 74%
    03:00 +3°C° 0 mm 10 mps 740 mmHg 73%
    04:00 +2°C° 0 mm 10 mps 740 mmHg 73%
    05:00 +2°C° 0 mm 11 mps 741 mmHg 70%
    06:00 +2°C° 0 mm 12 mps 742 mmHg 67%
    07:00 +2°C° 0 mm 12 mps 742 mmHg 63%
    08:00 +3°C° 0 mm 13 mps 743 mmHg 58%
    09:00 +4°C° 0 mm 14 mps 743 mmHg 52%
    10:00 +5°C° 0 mm 14 mps 743 mmHg 47%
    11:00 +6°C° 0 mm 14 mps 744 mmHg 45%
    12:00 +6°C° 0 mm 15 mps 745 mmHg 44%
    13:00 +8°C° 0 mm 15 mps 745 mmHg 42%
    14:00 +6°C° 0 mm 14 mps 746 mmHg 45%
    15:00 +6°C° 0 mm 14 mps 747 mmHg 48%
    16:00 +6°C° 0 mm 14 mps 748 mmHg 51%
    17:00 +5°C° 0 mm 13 mps 749 mmHg 55%
    18:00 +4°C° 0 mm 11 mps 749 mmHg 59%
    19:00 +5°C° 0 mm 10 mps 750 mmHg 64%
    20:00 +3°C° 0 mm 9 mps 750 mmHg 66%
    21:00 +4°C° 0 mm 8 mps 750 mmHg 68%
    22:00 +4°C° 0 mm 7 mps 751 mmHg 70%
    23:00 +4°C° 0 mm 7 mps 750 mmHg 67%
    Show more